Year,Month,Day,Hour,Minute,Value (Times are PST for temperature in C)
2011,05,24,00,00,7.50
2011,05,24,00,01,7.40
2011,05,24,00,02,7.40
2011,05,24,00,03,7.40
2011,05,24,00,04,7.40
2011,05,24,00,05,7.40
2011,05,24,00,06,7.40
2011,05,24,00,07,7.40
2011,05,24,00,08,7.40
2011,05,24,00,09,7.40
2011,05,24,00,10,7.30
2011,05,24,00,11,7.30
2011,05,24,00,12,7.30
2011,05,24,00,13,7.30
2011,05,24,00,14,7.30
2011,05,24,00,15,7.30
2011,05,24,00,16,7.30
2011,05,24,00,17,7.30
2011,05,24,00,18,7.30
2011,05,24,00,19,7.30
2011,05,24,00,20,7.30
2011,05,24,00,21,7.30
2011,05,24,00,22,7.30
2011,05,24,00,23,7.30
2011,05,24,00,24,7.30
2011,05,24,00,25,7.30
2011,05,24,00,26,7.30
2011,05,24,00,27,7.30
2011,05,24,00,28,7.20
2011,05,24,00,29,7.20
2011,05,24,00,30,7.20
2011,05,24,00,31,7.20
2011,05,24,00,32,7.20
2011,05,24,00,33,7.20
2011,05,24,00,34,7.20
2011,05,24,00,35,7.20
2011,05,24,00,36,7.20
2011,05,24,00,37,7.20
2011,05,24,00,38,7.20
2011,05,24,00,39,7.20
2011,05,24,00,40,7.20
2011,05,24,00,41,7.20
2011,05,24,00,42,7.10
2011,05,24,00,43,7.10
2011,05,24,00,44,7.10
2011,05,24,00,45,7.10
2011,05,24,00,46,7.10
2011,05,24,00,47,7.10
2011,05,24,00,48,7.00
2011,05,24,00,49,7.00
2011,05,24,00,50,7.00
2011,05,24,00,51,7.00
2011,05,24,00,52,7.00
2011,05,24,00,53,6.90
2011,05,24,00,54,6.90
2011,05,24,00,55,6.90
2011,05,24,00,56,6.90
2011,05,24,00,57,6.90
2011,05,24,00,58,6.90
2011,05,24,00,59,6.80
2011,05,24,01,00,6.80
2011,05,24,01,01,6.80
2011,05,24,01,02,6.80
2011,05,24,01,03,6.80
2011,05,24,01,04,6.80
2011,05,24,01,05,6.80
2011,05,24,01,06,6.80
2011,05,24,01,07,6.80
2011,05,24,01,08,6.70
2011,05,24,01,09,6.70
2011,05,24,01,10,6.70
2011,05,24,01,11,6.70
2011,05,24,01,12,6.70
2011,05,24,01,13,6.70
2011,05,24,01,14,6.70
2011,05,24,01,15,6.70
2011,05,24,01,16,6.70
2011,05,24,01,17,6.70
2011,05,24,01,18,6.70
2011,05,24,01,19,6.70
2011,05,24,01,20,6.70
2011,05,24,01,21,6.70
2011,05,24,01,22,6.70
2011,05,24,01,23,6.70
2011,05,24,01,24,6.70
2011,05,24,01,25,6.70
2011,05,24,01,26,6.70
2011,05,24,01,27,6.70
2011,05,24,01,28,6.70
2011,05,24,01,29,6.70
2011,05,24,01,30,6.60
2011,05,24,01,31,6.60
2011,05,24,01,32,6.60
2011,05,24,01,33,6.60
2011,05,24,01,34,6.60
2011,05,24,01,35,6.60
2011,05,24,01,36,6.60
2011,05,24,01,37,6.60
2011,05,24,01,38,6.60
2011,05,24,01,39,6.60
2011,05,24,01,40,6.60
2011,05,24,01,41,6.60
2011,05,24,01,42,6.60
2011,05,24,01,43,6.60
2011,05,24,01,44,6.60
2011,05,24,01,45,6.60
2011,05,24,01,46,6.60
2011,05,24,01,47,6.60
2011,05,24,01,48,6.60
2011,05,24,01,49,6.60
2011,05,24,01,50,6.50
2011,05,24,01,51,6.50
2011,05,24,01,52,6.50
2011,05,24,01,53,6.50
2011,05,24,01,54,6.50
2011,05,24,01,55,6.50
2011,05,24,01,56,6.50
2011,05,24,01,57,6.50
2011,05,24,01,58,6.50
2011,05,24,01,59,6.40
2011,05,24,02,00,6.40
2011,05,24,02,01,6.40
2011,05,24,02,02,6.40
2011,05,24,02,03,6.40
2011,05,24,02,04,6.40
2011,05,24,02,05,6.40
2011,05,24,02,06,6.40
2011,05,24,02,07,6.40
2011,05,24,02,08,6.40
2011,05,24,02,09,6.40
2011,05,24,02,10,6.40
2011,05,24,02,11,6.40
2011,05,24,02,12,6.40
2011,05,24,02,13,6.30
2011,05,24,02,14,6.30
2011,05,24,02,15,6.30
2011,05,24,02,16,6.30
2011,05,24,02,17,6.30
2011,05,24,02,18,6.30
2011,05,24,02,19,6.30
2011,05,24,02,20,6.30
2011,05,24,02,21,6.30
2011,05,24,02,22,6.30
2011,05,24,02,23,6.30
2011,05,24,02,24,6.30
2011,05,24,02,25,6.30
2011,05,24,02,26,6.20
2011,05,24,02,27,6.20
2011,05,24,02,28,6.20
2011,05,24,02,29,6.20
2011,05,24,02,30,6.20
2011,05,24,02,31,6.20
2011,05,24,02,32,6.20
2011,05,24,02,33,6.20
2011,05,24,02,34,6.20
2011,05,24,02,35,6.20
2011,05,24,02,36,6.20
2011,05,24,02,37,6.20
2011,05,24,02,38,6.10
2011,05,24,02,39,6.10
2011,05,24,02,40,6.10
2011,05,24,02,41,6.10
2011,05,24,02,42,6.10
2011,05,24,02,43,6.10
2011,05,24,02,44,6.10
2011,05,24,02,45,6.10
2011,05,24,02,46,6.00
2011,05,24,02,47,6.00
2011,05,24,02,48,6.00
2011,05,24,02,49,6.00
2011,05,24,02,50,5.90
2011,05,24,02,51,5.90
2011,05,24,02,52,5.90
2011,05,24,02,53,5.90
2011,05,24,02,54,5.90
2011,05,24,02,55,5.90
2011,05,24,02,56,5.90
2011,05,24,02,57,5.90
2011,05,24,02,58,5.90
2011,05,24,02,59,5.90
2011,05,24,03,00,5.90
2011,05,24,03,01,5.90
2011,05,24,03,02,5.90
2011,05,24,03,03,5.90
2011,05,24,03,04,5.90
2011,05,24,03,05,5.90
2011,05,24,03,06,5.90
2011,05,24,03,07,5.90
2011,05,24,03,08,5.90
2011,05,24,03,09,5.90
2011,05,24,03,10,5.80
2011,05,24,03,11,5.80
2011,05,24,03,12,5.80
2011,05,24,03,13,5.80
2011,05,24,03,14,5.80
2011,05,24,03,15,5.80
2011,05,24,03,16,5.80
2011,05,24,03,17,5.80
2011,05,24,03,18,5.80
2011,05,24,03,19,5.80
2011,05,24,03,20,5.70
2011,05,24,03,21,5.70
2011,05,24,03,22,5.70
2011,05,24,03,23,5.70
2011,05,24,03,24,5.70
2011,05,24,03,25,5.70
2011,05,24,03,26,5.70
2011,05,24,03,27,5.60
2011,05,24,03,28,5.60
2011,05,24,03,29,5.60
2011,05,24,03,30,5.60
2011,05,24,03,31,5.60
2011,05,24,03,32,5.60
2011,05,24,03,33,5.60
2011,05,24,03,34,5.50
2011,05,24,03,35,5.50
2011,05,24,03,36,5.50
2011,05,24,03,37,5.50
2011,05,24,03,38,5.50
2011,05,24,03,39,5.50
2011,05,24,03,40,5.50
2011,05,24,03,41,5.40
2011,05,24,03,42,5.40
2011,05,24,03,43,5.40
2011,05,24,03,44,5.40
2011,05,24,03,45,5.40
2011,05,24,03,46,5.40
2011,05,24,03,47,5.40
2011,05,24,03,48,5.30
2011,05,24,03,49,5.30
2011,05,24,03,50,5.30
2011,05,24,03,51,5.30
2011,05,24,03,52,5.30
2011,05,24,03,53,5.30
2011,05,24,03,54,5.30
2011,05,24,03,55,5.30
2011,05,24,03,56,5.30
2011,05,24,03,57,5.30
2011,05,24,03,58,5.30
2011,05,24,03,59,5.30
2011,05,24,04,00,5.30
2011,05,24,04,01,5.30
2011,05,24,04,02,5.30
2011,05,24,04,03,5.30
2011,05,24,04,04,5.30
2011,05,24,04,05,5.20
2011,05,24,04,06,5.20
2011,05,24,04,07,5.20
2011,05,24,04,08,5.20
2011,05,24,04,09,5.20
2011,05,24,04,10,5.20
2011,05,24,04,11,5.20
2011,05,24,04,12,5.20
2011,05,24,04,13,5.20
2011,05,24,04,14,5.20
2011,05,24,04,15,5.20
2011,05,24,04,16,5.20
2011,05,24,04,17,5.20
2011,05,24,04,18,5.20
2011,05,24,04,19,5.20
2011,05,24,04,20,5.20
2011,05,24,04,21,5.20
2011,05,24,04,22,5.20
2011,05,24,04,23,5.10
2011,05,24,04,24,5.10
2011,05,24,04,25,5.10
2011,05,24,04,26,5.10
2011,05,24,04,27,5.10
2011,05,24,04,28,5.10
2011,05,24,04,29,5.10
2011,05,24,04,30,5.20
2011,05,24,04,31,5.20
2011,05,24,04,32,5.20
2011,05,24,04,33,5.20
2011,05,24,04,34,5.20
2011,05,24,04,35,5.20
2011,05,24,04,36,5.20
2011,05,24,04,37,5.20
2011,05,24,04,38,5.20
2011,05,24,04,39,5.20
2011,05,24,04,40,5.20
2011,05,24,04,41,5.20
2011,05,24,04,42,5.20
2011,05,24,04,43,5.20
2011,05,24,04,44,5.20
2011,05,24,04,45,5.20
2011,05,24,04,46,5.20
2011,05,24,04,47,5.20
2011,05,24,04,48,5.20
2011,05,24,04,49,5.20
2011,05,24,04,50,5.20
2011,05,24,04,51,5.20
2011,05,24,04,52,5.20
2011,05,24,04,53,5.20
2011,05,24,04,54,5.20
2011,05,24,04,55,5.20
2011,05,24,04,56,5.30
2011,05,24,04,57,5.30
2011,05,24,04,58,5.30
2011,05,24,04,59,5.30
2011,05,24,05,00,5.30
2011,05,24,05,01,5.30
2011,05,24,05,02,5.30
2011,05,24,05,03,5.30
2011,05,24,05,04,5.30
2011,05,24,05,05,5.30
2011,05,24,05,06,5.30
2011,05,24,05,07,5.30
2011,05,24,05,08,5.30
2011,05,24,05,09,5.30
2011,05,24,05,10,5.30
2011,05,24,05,11,5.30
2011,05,24,05,12,5.30
2011,05,24,05,13,5.30
2011,05,24,05,14,5.30
2011,05,24,05,15,5.30
2011,05,24,05,16,5.30
2011,05,24,05,17,5.30
2011,05,24,05,18,5.30
2011,05,24,05,19,5.30
2011,05,24,05,20,5.30
2011,05,24,05,21,5.30
2011,05,24,05,22,5.30
2011,05,24,05,23,5.30
2011,05,24,05,24,5.30
2011,05,24,05,25,5.20
2011,05,24,05,26,5.20
2011,05,24,05,27,5.20
2011,05,24,05,28,5.20
2011,05,24,05,29,5.10
2011,05,24,05,30,5.10
2011,05,24,05,31,5.10
2011,05,24,05,32,5.10
2011,05,24,05,33,5.10
2011,05,24,05,34,5.10
2011,05,24,05,35,5.10
2011,05,24,05,36,5.10
2011,05,24,05,37,5.10
2011,05,24,05,38,5.10
2011,05,24,05,39,5.10
2011,05,24,05,40,5.10
2011,05,24,05,41,5.10
2011,05,24,05,42,5.10
2011,05,24,05,43,5.10
2011,05,24,05,44,5.10
2011,05,24,05,45,5.20
2011,05,24,05,46,5.20
2011,05,24,05,47,5.20
2011,05,24,05,48,5.20
2011,05,24,05,49,5.20
2011,05,24,05,50,5.20
2011,05,24,05,51,5.10
2011,05,24,05,52,5.10
2011,05,24,05,53,5.10
2011,05,24,05,54,5.10
2011,05,24,05,55,5.10
2011,05,24,05,56,5.10
2011,05,24,05,57,5.10
2011,05,24,05,58,5.10
2011,05,24,05,59,5.10
2011,05,24,06,00,5.00
2011,05,24,06,01,5.00
2011,05,24,06,02,5.00
2011,05,24,06,03,4.90
2011,05,24,06,04,4.90
2011,05,24,06,05,4.90
2011,05,24,06,06,4.90
2011,05,24,06,07,4.90
2011,05,24,06,08,4.90
2011,05,24,06,09,4.90
2011,05,24,06,10,4.80
2011,05,24,06,11,4.90
2011,05,24,06,12,4.90
2011,05,24,06,13,4.90
2011,05,24,06,14,4.90
2011,05,24,06,15,4.90
2011,05,24,06,16,4.90
2011,05,24,06,17,4.90
2011,05,24,06,18,4.90
2011,05,24,06,19,5.00
2011,05,24,06,20,5.00
2011,05,24,06,21,5.00
2011,05,24,06,22,5.00
2011,05,24,06,23,5.00
2011,05,24,06,24,5.10
2011,05,24,06,25,5.10
2011,05,24,06,26,5.10
2011,05,24,06,27,5.10
2011,05,24,06,28,5.10
2011,05,24,06,29,5.10
2011,05,24,06,30,5.10
2011,05,24,06,31,5.10
2011,05,24,06,32,5.10
2011,05,24,06,33,5.10
2011,05,24,06,34,5.10
2011,05,24,06,35,5.10
2011,05,24,06,36,5.10
2011,05,24,06,37,5.10
2011,05,24,06,38,5.10
2011,05,24,06,39,5.20
2011,05,24,06,40,5.20
2011,05,24,06,41,5.20
2011,05,24,06,42,5.20
2011,05,24,06,43,5.20
2011,05,24,06,44,5.20
2011,05,24,06,45,5.20
2011,05,24,06,46,5.20
2011,05,24,06,47,5.20
2011,05,24,06,48,5.30
2011,05,24,06,49,5.30
2011,05,24,06,50,5.30
2011,05,24,06,51,5.30
2011,05,24,06,52,5.30
2011,05,24,06,53,5.30
2011,05,24,06,54,5.30
2011,05,24,06,55,5.30
2011,05,24,06,56,5.30
2011,05,24,06,57,5.30
2011,05,24,06,58,5.30
2011,05,24,06,59,5.30
2011,05,24,07,00,5.30
2011,05,24,07,01,5.30
2011,05,24,07,02,5.30
2011,05,24,07,03,5.30
2011,05,24,07,04,5.30
2011,05,24,07,05,5.30
2011,05,24,07,06,5.30
2011,05,24,07,07,5.40
2011,05,24,07,08,5.40
2011,05,24,07,09,5.40
2011,05,24,07,10,5.40
2011,05,24,07,11,5.40
2011,05,24,07,12,5.40
2011,05,24,07,13,5.40
2011,05,24,07,14,5.40
2011,05,24,07,15,5.50
2011,05,24,07,16,5.50
2011,05,24,07,17,5.50
2011,05,24,07,18,5.60
2011,05,24,07,19,5.60
2011,05,24,07,20,5.60
2011,05,24,07,21,5.60
2011,05,24,07,22,5.60
2011,05,24,07,23,5.60
2011,05,24,07,24,5.70
2011,05,24,07,25,5.70
2011,05,24,07,26,5.70
2011,05,24,07,27,5.70
2011,05,24,07,28,5.70
2011,05,24,07,29,5.70
2011,05,24,07,30,5.80
2011,05,24,07,31,5.80
2011,05,24,07,32,5.80
2011,05,24,07,33,5.80
2011,05,24,07,34,5.80
2011,05,24,07,35,5.90
2011,05,24,07,36,5.90
2011,05,24,07,37,5.90
2011,05,24,07,38,5.90
2011,05,24,07,39,5.90
2011,05,24,07,40,6.00
2011,05,24,07,41,6.00
2011,05,24,07,42,6.00
2011,05,24,07,43,6.00
2011,05,24,07,44,6.10
2011,05,24,07,45,6.10
2011,05,24,07,46,6.10
2011,05,24,07,47,6.10
2011,05,24,07,48,6.10
2011,05,24,07,49,6.20
2011,05,24,07,50,6.20
2011,05,24,07,51,6.20
2011,05,24,07,52,6.20
2011,05,24,07,53,6.30
2011,05,24,07,54,6.30
2011,05,24,07,55,6.30
2011,05,24,07,56,6.30
2011,05,24,07,57,6.30
2011,05,24,07,58,6.40
2011,05,24,07,59,6.40
2011,05,24,08,00,6.40
2011,05,24,08,01,6.40
2011,05,24,08,02,6.40
2011,05,24,08,03,6.50
2011,05,24,08,04,6.50
2011,05,24,08,05,6.60
2011,05,24,08,06,6.60
2011,05,24,08,07,6.60
2011,05,24,08,08,6.60
2011,05,24,08,09,6.70
2011,05,24,08,10,6.70
2011,05,24,08,11,6.70
2011,05,24,08,12,6.70
2011,05,24,08,13,6.80
2011,05,24,08,14,6.80
2011,05,24,08,15,6.80
2011,05,24,08,16,6.80
2011,05,24,08,17,6.90
2011,05,24,08,18,6.90
2011,05,24,08,19,6.90
2011,05,24,08,20,6.90
2011,05,24,08,21,7.00
2011,05,24,08,22,7.00
2011,05,24,08,23,7.00
2011,05,24,08,24,7.10
2011,05,24,08,25,7.10
2011,05,24,08,26,7.10
2011,05,24,08,27,7.10
2011,05,24,08,28,7.20
2011,05,24,08,29,7.20
2011,05,24,08,30,7.20
2011,05,24,08,31,7.20
2011,05,24,08,32,7.20
2011,05,24,08,33,7.30
2011,05,24,08,34,7.30
2011,05,24,08,35,7.40
2011,05,24,08,36,7.40
2011,05,24,08,37,7.40
2011,05,24,08,38,7.50
2011,05,24,08,39,7.60
2011,05,24,08,40,7.60
2011,05,24,08,41,7.70
2011,05,24,08,42,7.70
2011,05,24,08,43,7.70
2011,05,24,08,44,7.80
2011,05,24,08,45,7.80
2011,05,24,08,46,7.90
2011,05,24,08,47,7.90
2011,05,24,08,48,8.00
2011,05,24,08,49,8.00
2011,05,24,08,50,8.10
2011,05,24,08,51,8.10
2011,05,24,08,52,8.20
2011,05,24,08,53,8.20
2011,05,24,08,54,8.20
2011,05,24,08,55,8.30
2011,05,24,08,56,8.30
2011,05,24,08,57,8.30
2011,05,24,08,58,8.40
2011,05,24,08,59,8.40
2011,05,24,09,00,8.40
2011,05,24,09,01,8.40
2011,05,24,09,02,8.50
2011,05,24,09,03,8.60
2011,05,24,09,04,8.60
2011,05,24,09,05,8.60
2011,05,24,09,06,8.70
2011,05,24,09,07,8.70
2011,05,24,09,08,8.70
2011,05,24,09,09,8.70
2011,05,24,09,10,8.80
2011,05,24,09,11,8.80
2011,05,24,09,12,8.90
2011,05,24,09,13,8.90
2011,05,24,09,14,9.00
2011,05,24,09,15,9.00
2011,05,24,09,16,9.10
2011,05,24,09,17,9.20
2011,05,24,09,18,9.20
2011,05,24,09,19,9.30
2011,05,24,09,20,9.30
2011,05,24,09,21,9.40
2011,05,24,09,22,9.40
2011,05,24,09,23,9.50
2011,05,24,09,24,9.50
2011,05,24,09,25,9.60
2011,05,24,09,26,9.60
2011,05,24,09,27,9.60
2011,05,24,09,28,9.70
2011,05,24,09,29,9.70
2011,05,24,09,30,9.80
2011,05,24,09,31,9.80
2011,05,24,09,32,9.80
2011,05,24,09,33,9.90
2011,05,24,09,34,9.90
2011,05,24,09,35,10.00
2011,05,24,09,36,10.10
2011,05,24,09,37,10.10
2011,05,24,09,38,10.10
2011,05,24,09,39,10.20
2011,05,24,09,40,10.20
2011,05,24,09,41,10.20
2011,05,24,09,42,10.30
2011,05,24,09,43,10.30
2011,05,24,09,44,10.30
2011,05,24,09,45,10.40
2011,05,24,09,46,10.40
2011,05,24,09,47,10.50
2011,05,24,09,48,10.50
2011,05,24,09,49,10.60
2011,05,24,09,50,10.60
2011,05,24,09,51,10.70
2011,05,24,09,52,10.70
2011,05,24,09,53,10.80
2011,05,24,09,54,10.90
2011,05,24,09,55,11.00
2011,05,24,09,56,11.00
2011,05,24,09,57,11.10
2011,05,24,09,58,11.10
2011,05,24,09,59,11.20
2011,05,24,10,00,11.20
2011,05,24,10,01,11.30
2011,05,24,10,02,11.30
2011,05,24,10,03,11.30
2011,05,24,10,04,11.40
2011,05,24,10,05,11.40
2011,05,24,10,06,11.40
2011,05,24,10,07,11.50
2011,05,24,10,08,11.50
2011,05,24,10,09,11.60
2011,05,24,10,10,11.60
2011,05,24,10,11,11.70
2011,05,24,10,12,11.70
2011,05,24,10,13,11.70
2011,05,24,10,14,11.80
2011,05,24,10,15,11.80
2011,05,24,10,16,11.80
2011,05,24,10,17,11.80
2011,05,24,10,18,11.80
2011,05,24,10,19,11.80
2011,05,24,10,20,11.80
2011,05,24,10,21,11.80
2011,05,24,10,22,11.80
2011,05,24,10,23,11.80
2011,05,24,10,24,11.80
2011,05,24,10,25,11.80
2011,05,24,10,26,11.80
2011,05,24,10,27,11.80
2011,05,24,10,28,11.80
2011,05,24,10,29,11.80
2011,05,24,10,30,11.80
2011,05,24,10,31,11.90
2011,05,24,10,32,11.90
2011,05,24,10,33,12.00
2011,05,24,10,34,12.10
2011,05,24,10,35,12.10
2011,05,24,10,36,12.10
2011,05,24,10,37,12.20
2011,05,24,10,38,12.20
2011,05,24,10,39,12.20
2011,05,24,10,40,12.30
2011,05,24,10,41,12.30
2011,05,24,10,42,12.30
2011,05,24,10,43,12.30
2011,05,24,10,44,12.40
2011,05,24,10,45,12.40
2011,05,24,10,46,12.50
2011,05,24,10,47,12.60
2011,05,24,10,48,12.60
2011,05,24,10,49,12.70
2011,05,24,10,50,12.70
2011,05,24,10,51,12.80
2011,05,24,10,52,12.80
2011,05,24,10,53,12.80
2011,05,24,10,54,12.90
2011,05,24,10,55,12.90
2011,05,24,10,56,13.00
2011,05,24,10,57,13.10
2011,05,24,10,58,13.10
2011,05,24,10,59,13.20
2011,05,24,11,00,13.30
2011,05,24,11,01,13.30
2011,05,24,11,02,13.30
2011,05,24,11,03,13.40
2011,05,24,11,04,13.40
2011,05,24,11,05,13.40
2011,05,24,11,06,13.40
2011,05,24,11,07,13.40
2011,05,24,11,08,13.40
2011,05,24,11,09,13.40
2011,05,24,11,10,13.50
2011,05,24,11,11,13.50
2011,05,24,11,12,13.50
2011,05,24,11,13,13.50
2011,05,24,11,14,13.50
2011,05,24,11,15,13.60
2011,05,24,11,16,13.60
2011,05,24,11,17,13.60
2011,05,24,11,18,13.60
2011,05,24,11,19,13.60
2011,05,24,11,20,13.70
2011,05,24,11,21,13.70
2011,05,24,11,22,13.80
2011,05,24,11,23,13.90
2011,05,24,11,24,14.00
2011,05,24,11,25,14.10
2011,05,24,11,26,14.20
2011,05,24,11,27,14.40
2011,05,24,11,28,14.40
2011,05,24,11,29,14.50
2011,05,24,11,30,14.60
2011,05,24,11,31,14.60
2011,05,24,11,32,14.70
2011,05,24,11,33,14.70
2011,05,24,11,34,14.70
2011,05,24,11,35,14.70
2011,05,24,11,36,14.60
2011,05,24,11,37,14.60
2011,05,24,11,38,14.60
2011,05,24,11,39,14.50
2011,05,24,11,40,14.50
2011,05,24,11,41,14.50
2011,05,24,11,42,14.40
2011,05,24,11,43,14.40
2011,05,24,11,44,14.40
2011,05,24,11,45,14.40
2011,05,24,11,46,14.40
2011,05,24,11,47,14.40
2011,05,24,11,48,14.40
2011,05,24,11,49,14.40
2011,05,24,11,50,14.30
2011,05,24,11,51,14.30
2011,05,24,11,52,14.30
2011,05,24,11,53,14.30
2011,05,24,11,54,14.30
2011,05,24,11,55,14.30
2011,05,24,11,56,14.40
2011,05,24,11,57,14.40
2011,05,24,11,58,14.40
2011,05,24,11,59,14.40
2011,05,24,12,00,14.30
2011,05,24,12,01,14.40
2011,05,24,12,02,14.40
2011,05,24,12,03,14.50
2011,05,24,12,04,14.50
2011,05,24,12,05,14.60
2011,05,24,12,06,14.60
2011,05,24,12,07,14.70
2011,05,24,12,08,14.70
2011,05,24,12,09,14.80
2011,05,24,12,10,14.80
2011,05,24,12,11,14.80
2011,05,24,12,12,14.80
2011,05,24,12,13,14.90
2011,05,24,12,14,14.90
2011,05,24,12,15,14.90
2011,05,24,12,16,14.90
2011,05,24,12,17,14.90
2011,05,24,12,18,15.00
2011,05,24,12,19,15.00
2011,05,24,12,20,15.00
2011,05,24,12,21,15.00
2011,05,24,12,22,15.00
2011,05,24,12,23,15.00
2011,05,24,12,24,15.00
2011,05,24,12,25,15.00
2011,05,24,12,26,15.00
2011,05,24,12,27,15.00
2011,05,24,12,28,15.00
2011,05,24,12,29,15.10
2011,05,24,12,30,15.10
2011,05,24,12,31,15.20
2011,05,24,12,32,15.20
2011,05,24,12,33,15.30
2011,05,24,12,34,15.30
2011,05,24,12,35,15.40
2011,05,24,12,36,15.40
2011,05,24,12,37,15.50
2011,05,24,12,38,15.50
2011,05,24,12,39,15.60
2011,05,24,12,40,15.60
2011,05,24,12,41,15.60
2011,05,24,12,42,15.60
2011,05,24,12,43,15.60
2011,05,24,12,44,15.60
2011,05,24,12,45,15.60
2011,05,24,12,46,15.60
2011,05,24,12,47,15.60
2011,05,24,12,48,15.70
2011,05,24,12,49,15.80
2011,05,24,12,50,15.90
2011,05,24,12,51,15.90
2011,05,24,12,52,16.00
2011,05,24,12,53,16.10
2011,05,24,12,54,16.20
2011,05,24,12,55,16.30
2011,05,24,12,56,16.30
2011,05,24,12,57,16.40
2011,05,24,12,58,16.40
2011,05,24,12,59,16.50
2011,05,24,13,00,16.60
2011,05,24,13,01,16.80
2011,05,24,13,02,16.90
2011,05,24,13,03,17.00
2011,05,24,13,04,17.10
2011,05,24,13,05,17.20
2011,05,24,13,06,17.30
2011,05,24,13,07,17.30
2011,05,24,13,08,17.30
2011,05,24,13,09,17.40
2011,05,24,13,10,17.50
2011,05,24,13,11,17.60
2011,05,24,13,12,17.70
2011,05,24,13,13,17.70
2011,05,24,13,14,17.80
2011,05,24,13,15,17.80
2011,05,24,13,16,17.80
2011,05,24,13,17,17.80
2011,05,24,13,18,17.80
2011,05,24,13,19,17.80
2011,05,24,13,20,17.80
2011,05,24,13,21,17.70
2011,05,24,13,22,17.80
2011,05,24,13,23,17.80
2011,05,24,13,24,17.80
2011,05,24,13,25,17.90
2011,05,24,13,26,17.90
2011,05,24,13,27,18.00
2011,05,24,13,28,18.10
2011,05,24,13,29,18.10
2011,05,24,13,30,18.00
2011,05,24,13,31,17.90
2011,05,24,13,32,17.90
2011,05,24,13,33,17.90
2011,05,24,13,34,18.00
2011,05,24,13,35,18.20
2011,05,24,13,36,18.30
2011,05,24,13,37,18.30
2011,05,24,13,38,18.30
2011,05,24,13,39,18.30
2011,05,24,13,40,18.30
2011,05,24,13,41,18.30
2011,05,24,13,42,18.40
2011,05,24,13,43,18.50
2011,05,24,13,44,18.60
2011,05,24,13,45,18.70
2011,05,24,13,46,18.70
2011,05,24,13,47,18.80
2011,05,24,13,48,18.80
2011,05,24,13,49,18.90
2011,05,24,13,50,18.90
2011,05,24,13,51,18.90
2011,05,24,13,52,18.80
2011,05,24,13,53,18.80
2011,05,24,13,54,18.80
2011,05,24,13,55,18.80
2011,05,24,13,56,18.80
2011,05,24,13,57,18.80
2011,05,24,13,58,18.70
2011,05,24,13,59,18.50
2011,05,24,14,00,18.40
2011,05,24,14,01,18.30
2011,05,24,14,02,18.20
2011,05,24,14,03,18.20
2011,05,24,14,04,18.20
2011,05,24,14,05,18.20
2011,05,24,14,06,18.20
2011,05,24,14,07,18.30
2011,05,24,14,08,18.30
2011,05,24,14,09,18.30
2011,05,24,14,10,18.30
2011,05,24,14,11,18.20
2011,05,24,14,12,18.20
2011,05,24,14,13,18.20
2011,05,24,14,14,18.10
2011,05,24,14,15,18.10
2011,05,24,14,16,18.10
2011,05,24,14,17,18.00
2011,05,24,14,18,18.00
2011,05,24,14,19,17.90
2011,05,24,14,20,17.90
2011,05,24,14,21,17.80
2011,05,24,14,22,17.70
2011,05,24,14,23,17.60
2011,05,24,14,24,17.50
2011,05,24,14,25,17.50
2011,05,24,14,26,17.50
2011,05,24,14,27,17.60
2011,05,24,14,28,17.70
2011,05,24,14,29,17.80
2011,05,24,14,30,17.90
2011,05,24,14,31,18.00
2011,05,24,14,32,18.10
2011,05,24,14,33,18.20
2011,05,24,14,34,18.40
2011,05,24,14,35,18.50
2011,05,24,14,36,18.60
2011,05,24,14,37,18.80
2011,05,24,14,38,18.90
2011,05,24,14,39,19.10
2011,05,24,14,40,19.20
2011,05,24,14,41,19.30
2011,05,24,14,42,19.50
2011,05,24,14,43,19.50
2011,05,24,14,44,19.60
2011,05,24,14,45,19.70
2011,05,24,14,46,19.80
2011,05,24,14,47,19.80
2011,05,24,14,48,19.90
2011,05,24,14,49,19.90
2011,05,24,14,50,19.90
2011,05,24,14,51,19.70
2011,05,24,14,52,19.50
2011,05,24,14,53,19.40
2011,05,24,14,54,19.20
2011,05,24,14,55,19.00
2011,05,24,14,56,18.90
2011,05,24,14,57,18.80
2011,05,24,14,58,18.80
2011,05,24,14,59,18.80
2011,05,24,15,00,18.90
2011,05,24,15,01,19.00
2011,05,24,15,02,19.20
2011,05,24,15,03,19.20
2011,05,24,15,04,19.20
2011,05,24,15,05,19.30
2011,05,24,15,06,19.30
2011,05,24,15,07,19.30
2011,05,24,15,08,19.30
2011,05,24,15,09,19.40
2011,05,24,15,10,19.30
2011,05,24,15,11,19.30
2011,05,24,15,12,19.20
2011,05,24,15,13,19.30
2011,05,24,15,14,19.20
2011,05,24,15,15,19.30
2011,05,24,15,16,19.30
2011,05,24,15,17,19.30
2011,05,24,15,18,19.40
2011,05,24,15,19,19.40
2011,05,24,15,20,19.40
2011,05,24,15,21,19.40
2011,05,24,15,22,19.30
2011,05,24,15,23,19.10
2011,05,24,15,24,18.90
2011,05,24,15,25,18.80
2011,05,24,15,26,18.70
2011,05,24,15,27,18.60
2011,05,24,15,28,18.50
2011,05,24,15,29,18.50
2011,05,24,15,30,18.40
2011,05,24,15,31,18.40
2011,05,24,15,32,18.30
2011,05,24,15,33,18.30
2011,05,24,15,34,18.30
2011,05,24,15,35,18.30
2011,05,24,15,36,18.40
2011,05,24,15,37,18.40
2011,05,24,15,38,18.50
2011,05,24,15,39,18.50
2011,05,24,15,40,18.60
2011,05,24,15,41,18.70
2011,05,24,15,42,18.70
2011,05,24,15,43,18.80
2011,05,24,15,44,18.80
2011,05,24,15,45,18.80
2011,05,24,15,46,18.80
2011,05,24,15,47,18.80
2011,05,24,15,48,18.70
2011,05,24,15,49,18.70
2011,05,24,15,50,18.80
2011,05,24,15,51,18.80
2011,05,24,15,52,18.80
2011,05,24,15,53,18.90
2011,05,24,15,54,18.80
2011,05,24,15,55,18.90
2011,05,24,15,56,18.90
2011,05,24,15,57,18.80
2011,05,24,15,58,18.80
2011,05,24,15,59,18.80
2011,05,24,16,00,18.80
2011,05,24,16,01,18.80
2011,05,24,16,02,18.80
2011,05,24,16,03,18.70
2011,05,24,16,04,18.70
2011,05,24,16,05,18.70
2011,05,24,16,06,18.80
2011,05,24,16,07,18.80
2011,05,24,16,08,18.80
2011,05,24,16,09,18.90
2011,05,24,16,10,18.90
2011,05,24,16,11,18.80
2011,05,24,16,12,18.80
2011,05,24,16,13,18.70
2011,05,24,16,14,18.70
2011,05,24,16,15,18.60
2011,05,24,16,16,18.50
2011,05,24,16,17,18.50
2011,05,24,16,18,18.40
2011,05,24,16,19,18.40
2011,05,24,16,20,18.40
2011,05,24,16,21,18.50
2011,05,24,16,22,18.50
2011,05,24,16,23,18.60
2011,05,24,16,24,18.70
2011,05,24,16,25,18.80
2011,05,24,16,26,18.80
2011,05,24,16,27,18.80
2011,05,24,16,28,18.80
2011,05,24,16,29,18.80
2011,05,24,16,30,18.70
2011,05,24,16,31,18.70
2011,05,24,16,32,18.60
2011,05,24,16,33,18.50
2011,05,24,16,34,18.40
2011,05,24,16,35,18.40
2011,05,24,16,36,18.30
2011,05,24,16,37,18.30
2011,05,24,16,38,18.10
2011,05,24,16,39,18.10
2011,05,24,16,40,18.10
2011,05,24,16,41,18.00
2011,05,24,16,42,18.00
2011,05,24,16,43,17.90
2011,05,24,16,44,17.80
2011,05,24,16,45,17.80
2011,05,24,16,46,17.70
2011,05,24,16,47,17.70
2011,05,24,16,48,17.80
2011,05,24,16,49,17.80
2011,05,24,16,50,17.80
2011,05,24,16,51,17.90
2011,05,24,16,52,17.90
2011,05,24,16,53,17.90
2011,05,24,16,54,17.80
2011,05,24,16,55,17.80
2011,05,24,16,56,17.70
2011,05,24,16,57,17.70
2011,05,24,16,58,17.80
2011,05,24,16,59,17.80
2011,05,24,17,00,17.90
2011,05,24,17,01,17.90
2011,05,24,17,02,17.90
2011,05,24,17,03,17.90
2011,05,24,17,04,17.90
2011,05,24,17,05,17.80
2011,05,24,17,06,17.80
2011,05,24,17,07,17.80
2011,05,24,17,08,17.70
2011,05,24,17,09,17.70
2011,05,24,17,10,17.70
2011,05,24,17,11,17.70
2011,05,24,17,12,17.70
2011,05,24,17,13,17.70
2011,05,24,17,14,17.60
2011,05,24,17,15,17.60
2011,05,24,17,16,17.60
2011,05,24,17,17,17.60
2011,05,24,17,18,17.60
2011,05,24,17,19,17.60
2011,05,24,17,20,17.50
2011,05,24,17,21,17.40
2011,05,24,17,22,17.40
2011,05,24,17,23,17.30
2011,05,24,17,24,17.30
2011,05,24,17,25,17.20
2011,05,24,17,26,17.20
2011,05,24,17,27,17.20
2011,05,24,17,28,17.20
2011,05,24,17,29,17.20
2011,05,24,17,30,17.20
2011,05,24,17,31,17.30
2011,05,24,17,32,17.30
2011,05,24,17,33,17.30
2011,05,24,17,34,17.40
2011,05,24,17,35,17.40
2011,05,24,17,36,17.40
2011,05,24,17,37,17.50
2011,05,24,17,38,17.50
2011,05,24,17,39,17.50
2011,05,24,17,40,17.50
2011,05,24,17,41,17.60
2011,05,24,17,42,17.60
2011,05,24,17,43,17.60
2011,05,24,17,44,17.60